Location: ??????
(56.0120°N, 39.1740°E)
Time: 06:28:58
(UTC+00:00)

Cosmos 1634 Rocket - Pass Details

Date: 14 April 2026
Orbit: 959 x 992 km, 82.9° (Epoch: 10 May)

Event Time Altitude Azimuth Distance (km) Brightness Sun altitude
Exits shadow 23:24:33 23° 169° (S) 1,922 5.1 -19.7°
Maximum altitude 23:28:27 64° 95° (E) 1,066 4.3 -19.4°
Drops below altitude 10° 23:34:33 10° 16° (NNE) 2,707 7.4 -18.9°
Sets 23:37:05 0° 13° (NNE) 3,656 8.3 -18.7°
